Starlink 30588

operational
NORAD ID: 58062 Int'l Des: 2023-158 Owner: SPXS Country: US Constellation: starlink
LEOCIRCULAR

关于 Starlink 30588

正在加载描述...

实时位置

正在加载3D地球...

即将过境

高度历史

Altitude vs Time

uPlot chart will show altitude changes over time

两行轨道根数

1 58062U 23158M 25354.64851618 .00000445 00000-0 47977-4 0 9999
2 58062 43.0033 99.6334 0001021 270.0880 89.9846 15.02536524121640
Epoch: Dec 20, 2025 • Age: 12 hours

当前状态

高度 568.0 km
速度 7.58 km/s
星下点 -33.54°S, 175.35°E
发射日期 Oct 13, 2023
运行时间 2.1 years
类型 internet

技术详情

分类 Payload
质量 730.00 kg
干质量 700.00 kg
总质量 730.00 kg
长度 0.30 m
直径 4.10 m
跨度 29.00 m
形状 Box + pan
制造商 SPXS
平台类型 Starlink V2M
阶段状态 In Orbit
所有者/国家 SPXS/US

大型星座

Loading constellations...